| time (UTC) | temp C | wind direction | speed KPH | gust KPH | rain 1hr cm | rain 24hr cm | rain mn cm | humidity % | barometer mb |
| 20260509101812 | -17 | 315 | 0.0 | 1.6 | 0.00 | 0.00 | 0.00 | ||
| 20260509101309 | -17 | 46 | 0.0 | 1.6 | 0.00 | 0.00 | 0.00 | ||
| 20260509100807 | -17 | 243 | 0.0 | 3.2 | 0.00 | 0.00 | 0.00 | ||
| 20260509100304 | -17 | 135 | 0.0 | 1.6 | 0.00 | 0.00 | 0.00 | ||
| 20260509095800 | -17 | 176 | 1.6 | 3.2 | 0.00 | 0.00 | 0.00 | ||
| 20260509095257 | -17 | 120 | 0.0 | 3.2 | 0.00 | 0.00 | 0.00 | ||
| 20260509094754 | -17 | 283 | 0.0 | 1.6 | 0.00 | 0.00 | 0.00 | ||
| 20260509094251 | -17 | 218 | 0.0 | 1.6 | 0.00 | 0.00 | 0.00 | ||
| 20260509093749 | -17 | 214 | 0.0 | 3.2 | 0.00 | 0.00 | 0.00 | ||
| 20260509093246 | -17 | 25 | 0.0 | 3.2 | 0.00 | 0.00 | 0.00 | ||
| 20260509092744 | -17 | 341 | 0.0 | 1.6 | 0.00 | 0.00 | 0.00 | ||
| 20260509092242 | -17 | 215 | 0.0 | 3.2 | 0.00 | 0.00 | 0.00 | ||
| 20260509091740 | -17 | 122 | 0.0 | 1.6 | 0.00 | 0.00 | 0.00 | ||
| 20260509091236 | -17 | 242 | 0.0 | 3.2 | 0.00 | 0.00 | 0.00 | ||
| 20260509090734 | -17 | 157 | 0.0 | 1.6 | 0.00 | 0.00 | 0.00 | ||
| 20260509090231 | -17 | 224 | 0.0 | 1.6 | 0.00 | 0.00 | 0.00 | ||
| 20260509085728 | -17 | 205 | 0.0 | 1.6 | 0.00 | 0.00 | 0.00 | ||
| 20260509085225 | -17 | 141 | 1.6 | 3.2 | 0.00 | 0.00 | 0.00 | ||
| 20260509084722 | -17 | 140 | 0.0 | 3.2 | 0.00 | 0.00 | 0.00 | ||
| 20260509084218 | -17 | 125 | 0.0 | 3.2 | 0.00 | 0.00 | 0.00 | ||
| 20260509083717 | -17 | 182 | 1.6 | 3.2 | 0.00 | 0.00 | 0.00 | ||
| 20260509083213 | -17 | 202 | 0.0 | 3.2 | 0.00 | 0.00 | 0.00 | ||
| 20260509082710 | -17 | 117 | 0.0 | 1.6 | 0.00 | 0.00 | 0.00 | ||
| 20260509082206 | -17 | 124 | 0.0 | 0.0 | 0.00 | 0.00 | 0.00 | ||
| 20260509081703 | -17 | 307 | 0.0 | 3.2 | 0.00 | 0.00 | 0.00 | ||
| 20260509081201 | -17 | 154 | 0.0 | 3.2 | 0.00 | 0.00 | 0.00 | ||
| 20260509080659 | -17 | 192 | 1.6 | 4.8 | 0.00 | 0.00 | 0.00 | ||
| 20260509080156 | -17 | 153 | 0.0 | 4.8 | 0.00 | 0.00 | 0.00 | ||
| 20260509075654 | -17 | 154 | 0.0 | 4.8 | 0.00 | 0.00 | 0.00 | ||
| 20260509075151 | -17 | 172 | 0.0 | 3.2 | 0.00 | 0.00 | 0.00 | ||
| 20260509074648 | -17 | 75 | 0.0 | 1.6 | 0.00 | 0.00 | 0.00 | ||
| 20260509074145 | -17 | 142 | 0.0 | 1.6 | 0.00 | 0.00 | 0.00 | ||
| 20260509073642 | -17 | 217 | 0.0 | 1.6 | 0.00 | 0.00 | 0.00 | ||
| 20260509073138 | -17 | 98 | 0.0 | 3.2 | 0.00 | 0.00 | 0.00 | ||
| 20260509072635 | -17 | 117 | 0.0 | 3.2 | 0.00 | 0.00 | 0.00 | ||
| 20260509072132 | -17 | 133 | 0.0 | 3.2 | 0.00 | 0.00 | 0.00 | ||
| 20260509071628 | -17 | 154 | 0.0 | 4.8 | 0.00 | 0.00 | 0.00 | ||
| 20260509071125 | -17 | 170 | 3.2 | 8.0 | 0.00 | 0.00 | 0.00 | ||
| 20260509070623 | -17 | 201 | 0.0 | 9.7 | 0.00 | 0.00 | 0.00 | ||
| 20260509070119 | -17 | 195 | 0.0 | 3.2 | 0.00 | 0.00 | 0.00 | ||
| 20260509065614 | -17 | 224 | 0.0 | 3.2 | 0.00 | 0.00 | 0.00 | 1014.0 | |
| 20260509065111 | -17 | 240 | 0.0 | 3.2 | 0.00 | 0.00 | 0.00 | 1014.0 | |
| 20260509064608 | -17 | 154 | 0.0 | 3.2 | 0.00 | 0.00 | 0.00 | 1014.0 | |
| 20260509064106 | -17 | 211 | 1.6 | 4.8 | 0.00 | 0.00 | 0.00 | 1014.0 | |
| 20260509063603 | -17 | 172 | 0.0 | 3.2 | 0.00 | 0.00 | 0.00 | 1014.0 | |
| 20260509063059 | -17 | 216 | 0.0 | 3.2 | 0.00 | 0.00 | 0.00 | 1014.0 | |
| 20260509062556 | -17 | 195 | 0.0 | 3.2 | 0.00 | 0.00 | 0.00 | 1014.0 | |
| 20260509062054 | -17 | 152 | 3.2 | 4.8 | 0.00 | 0.00 | 0.00 | 1014.0 | |
| 20260509061550 | -17 | 184 | 1.6 | 3.2 | 0.00 | 0.00 | 0.00 | 1014.0 | |
| 20260509061048 | -17 | 158 | 0.0 | 9.7 | 0.00 | 0.00 | 0.00 | 1014.0 | |
| 20260509060545 | -17 | 160 | 3.2 | 3.2 | 0.00 | 0.00 | 0.00 | 1014.0 | |
| 20260509060041 | -17 | 206 | 0.0 | 11.3 | 0.00 | 0.00 | 0.00 | 1014.0 | |
| 20260509055536 | -17 | 216 | 0.0 | 8.0 | 0.00 | 0.00 | 0.00 | 1014.1 | |
| 20260509055033 | -17 | 203 | 0.0 | 6.4 | 0.00 | 0.00 | 0.00 | ||
| 20260509054529 | -17 | 154 | 1.6 | 3.2 | 0.00 | 0.00 | 0.00 | ||
| 20260509054027 | -17 | 145 | 0.0 | 3.2 | 0.00 | 0.00 | 0.00 | ||
| 20260509053526 | -17 | 155 | 0.0 | 3.2 | 0.00 | 0.00 | 0.00 | ||
| 20260509053022 | -17 | 156 | 0.0 | 3.2 | 0.00 | 0.00 | 0.00 | ||
| 20260509052520 | -17 | 176 | 0.0 | 3.2 | 0.00 | 0.00 | 0.00 | ||
| 20260509052018 | -17 | 168 | 1.6 | 4.8 | 0.00 | 0.00 | 0.00 | ||
| 20260509051516 | -17 | 117 | 0.0 | 4.8 | 0.00 | 0.00 | 0.00 | ||
| 20260509051012 | -17 | 129 | 0.0 | 1.6 | 0.00 | 0.00 | 0.00 | ||
| 20260509050509 | -17 | 146 | 1.6 | 3.2 | 0.00 | 0.00 | 0.00 | ||
| 20260509050006 | -17 | 143 | 1.6 | 1.6 | 0.00 | 0.00 | 0.00 | ||
| 20260509045503 | -17 | 142 | 0.0 | 4.8 | 0.00 | 0.00 | 0.00 | ||
| 20260509045000 | -17 | 142 | 0.0 | 3.2 | 0.00 | 0.00 | 0.00 | ||
| 20260509044458 | -17 | 205 | 0.0 | 3.2 | 0.00 | 0.00 | 0.00 | ||
| 20260509043955 | -17 | 158 | 1.6 | 3.2 | 0.00 | 0.00 | 0.00 | ||
| 20260509043450 | -17 | 126 | 0.0 | 1.6 | 0.00 | 0.00 | 0.00 | ||
| 20260509042946 | -17 | 103 | 0.0 | 1.6 | 0.00 | 0.00 | 0.00 | ||
| 20260509042443 | -17 | 297 | 0.0 | 0.0 | 0.00 | 0.00 | 0.00 | ||
| 20260509041939 | -17 | 117 | 0.0 | 1.6 | 0.00 | 0.00 | 0.00 | ||
| 20260509041436 | -17 | 117 | 0.0 | 0.0 | 0.00 | 0.00 | 0.00 | ||
| 20260509040934 | -17 | 62 | 0.0 | 0.0 | 0.00 | 0.00 | 0.00 | ||
| 20260509040432 | -17 | 62 | 0.0 | 0.0 | 0.00 | 0.00 | 0.00 | ||
| 20260509035928 | -17 | 129 | 0.0 | 0.0 | 0.00 | 0.00 | 0.00 | ||
| 20260509035425 | -17 | 127 | 0.0 | 1.6 | 0.00 | 0.00 | 0.00 | 1012.4 | |
| 20260509034922 | -17 | 205 | 0.0 | 0.0 | 0.00 | 0.00 | 0.00 | 1012.4 | |
| 20260509034420 | -17 | 205 | 0.0 | 0.0 | 0.00 | 0.00 | 0.00 | 1012.4 | |
| 20260509033917 | -17 | 142 | 0.0 | 0.0 | 0.00 | 0.00 | 0.00 | 1012.4 | |
| 20260509033414 | -17 | 193 | 0.0 | 1.6 | 0.00 | 0.00 | 0.00 | 1012.4 | |
| 20260509032910 | -17 | 117 | 0.0 | 0.0 | 0.00 | 0.00 | 0.00 | 1012.4 | |
| 20260509032408 | -17 | 117 | 0.0 | 0.0 | 0.00 | 0.00 | 0.00 | 1012.4 | |
| 20260509031906 | -17 | 129 | 0.0 | 0.0 | 0.00 | 0.00 | 0.00 | 1012.4 | |
| 20260509031403 | -17 | 129 | 0.0 | 1.6 | 0.00 | 0.00 | 0.00 | 1012.4 | |
| 20260509030900 | -17 | 217 | 0.0 | 1.6 | 0.00 | 0.00 | 0.00 | 1012.4 | |
| 20260509030358 | -17 | 177 | 0.0 | 3.2 | 0.00 | 0.00 | 0.00 | 1012.4 | |
| 20260509025855 | -17 | 164 | 0.0 | 3.2 | 0.00 | 0.00 | 0.00 | 1012.4 | |
| 20260509025350 | -17 | 160 | 0.0 | 1.6 | 0.00 | 0.00 | 0.00 | ||
| 20260509024845 | -17 | 178 | 0.0 | 3.2 | 0.00 | 0.00 | 0.00 | ||
| 20260509024342 | -17 | 187 | 1.6 | 3.2 | 0.00 | 0.00 | 0.00 | ||
| 20260509023839 | -17 | 174 | 0.0 | 3.2 | 0.00 | 0.00 | 0.00 | ||
| 20260509023336 | -17 | 142 | 0.0 | 1.6 | 0.00 | 0.00 | 0.00 | ||
| 20260509022827 | -17 | 154 | 0.0 | 0.0 | 0.00 | 0.00 | 0.00 | ||
| 20260509022325 | -17 | 117 | 0.0 | 1.6 | 0.00 | 0.00 | 0.00 | ||
| 20260509021821 | -17 | 135 | 0.0 | 1.6 | 0.00 | 0.00 | 0.00 | ||
| 20260509021318 | -17 | 129 | 0.0 | 3.2 | 0.00 | 0.00 | 0.00 | ||
| 20260509020816 | -17 | 166 | 0.0 | 1.6 | 0.00 | 0.00 | 0.00 | ||
| 20260509020314 | -17 | 205 | 0.0 | 1.6 | 0.00 | 0.00 | 0.00 | 1011.8 | |
| 20260509015811 | -17 | 159 | 1.6 | 3.2 | 0.00 | 0.00 | 0.00 | 1011.8 | |
| 20260509015309 | -17 | 155 | 4.8 | 4.8 | 0.00 | 0.00 | 0.00 | 1011.8 | |
| 20260509014805 | -17 | 180 | 0.0 | 4.8 | 0.00 | 0.00 | 0.00 | 1011.8 | |
| 20260509014303 | -17 | 158 | 4.8 | 4.8 | 0.00 | 0.00 | 0.00 | 1011.8 | |
| 20260509013759 | -17 | 141 | 0.0 | 3.2 | 0.00 | 0.00 | 0.00 | 1011.8 | |
| 20260509013255 | -17 | 172 | 1.6 | 4.8 | 0.00 | 0.00 | 0.00 | 1011.8 | |
| 20260509012751 | -17 | 180 | 0.0 | 4.8 | 0.00 | 0.00 | 0.00 | 1011.8 | |
| 20260509012248 | -17 | 142 | 0.0 | 1.6 | 0.00 | 0.00 | 0.00 | 1011.8 | |
| 20260509011746 | -17 | 135 | 3.2 | 3.2 | 0.00 | 0.00 | 0.00 | 1011.8 | |
| 20260509011243 | -17 | 183 | 0.0 | 4.8 | 0.00 | 0.00 | 0.00 | 1011.8 | |
| 20260509010740 | -17 | 133 | 1.6 | 4.8 | 0.00 | 0.00 | 0.00 | 1011.8 | |
| 20260509010237 | -17 | 126 | 1.6 | 4.8 | 0.00 | 0.00 | 0.00 | 1011.5 | |
| 20260509005734 | -17 | 154 | 0.0 | 3.2 | 0.00 | 0.00 | 0.00 | 1011.5 | |
| 20260509005231 | -17 | 94 | 0.0 | 3.2 | 0.00 | 0.00 | 0.00 | 1011.5 | |
| 20260509004725 | -17 | 158 | 1.6 | 4.8 | 0.00 | 0.00 | 0.00 | 1011.5 | |
| 20260509004224 | -17 | 82 | 0.0 | 4.8 | 0.00 | 0.00 | 0.00 | 1011.5 | |
| 20260509003722 | -17 | 76 | 0.0 | 3.2 | 0.00 | 0.00 | 0.00 | 1011.5 | |
| 20260509003219 | -17 | 49 | 0.0 | 3.2 | 0.00 | 0.00 | 0.00 | 1011.5 | |
| 20260509002716 | -17 | 161 | 0.0 | 6.4 | 0.00 | 0.00 | 0.00 | 1011.5 | |
| 20260509002214 | -17 | 166 | 0.0 | 3.2 | 0.00 | 0.00 | 0.00 | 1011.8 | |
| 20260509001711 | -17 | 150 | 0.0 | 4.8 | 0.00 | 0.00 | 0.00 | 1011.8 | |
| 20260509001207 | -17 | 168 | 0.0 | 4.8 | 0.00 | 0.00 | 0.00 | 1011.8 | |
| 20260509000705 | -17 | 154 | 1.6 | 3.2 | 0.00 | 0.00 | 0.00 | 1011.8 | |
| 20260509000204 | -17 | 22 | 0.0 | 4.8 | 0.00 | 0.00 | 0.00 | 1011.8 | |
| 20260508235659 | -17 | 66 | 0.0 | 1.6 | 0.00 | 0.00 | 0.00 | 1011.8 | |
| 20260508235155 | -17 | 180 | 0.0 | 6.4 | 0.00 | 0.00 | 0.00 | 1011.8 | |
| 20260508234652 | -17 | 135 | 0.0 | 4.8 | 0.00 | 0.00 | 0.00 | 1011.8 | |
| 20260508234148 | -17 | 151 | 0.0 | 4.8 | 0.00 | 0.00 | 0.00 | 1011.8 | |
| 20260508233643 | -17 | 130 | 0.0 | 4.8 | 0.00 | 0.00 | 0.00 | 1011.9 | |
| 20260508233140 | -17 | 173 | 0.0 | 4.8 | 0.00 | 0.00 | 0.00 | 1011.7 | |
| 20260508232637 | -17 | 136 | 0.0 | 4.8 | 0.00 | 0.00 | 0.00 | 1011.8 | |
| 20260508232134 | -17 | 131 | 0.0 | 3.2 | 0.00 | 0.00 | 0.00 | ||
| 20260508231631 | -17 | 186 | 0.0 | 4.8 | 0.00 | 0.00 | 0.00 | ||
| 20260508231128 | -17 | 103 | 0.0 | 6.4 | 0.00 | 0.00 | 0.00 | ||
| 20260508230624 | -17 | 155 | 1.6 | 4.8 | 0.00 | 0.00 | 0.00 | ||
| 20260508230120 | -17 | 179 | 3.2 | 8.0 | 0.00 | 0.00 | 0.00 | ||
| 20260508225613 | -17 | 147 | 3.2 | 6.4 | 0.00 | 0.00 | 0.00 | ||
| 20260508225109 | -17 | 143 | 1.6 | 3.2 | 0.00 | 0.00 | 0.00 | ||
| 20260508224607 | -17 | 117 | 0.0 | 4.8 | 0.00 | 0.00 | 0.00 | ||
| 20260508224104 | -17 | 50 | 0.0 | 4.8 | 0.00 | 0.00 | 0.00 | ||
| 20260508223602 | -17 | 190 | 3.2 | 4.8 | 0.00 | 0.00 | 0.00 | ||
| 20260508223059 | -17 | 89 | 0.0 | 1.6 | 0.00 | 0.00 | 0.00 | ||
| 20260508222556 | -17 | 109 | 3.2 | 4.8 | 0.00 | 0.00 | 0.00 | ||
| 20260508222053 | -17 | 143 | 4.8 | 6.4 | 0.00 | 0.00 | 0.00 | 1012.3 | |
| 20260508221549 | -17 | 11 | 0.0 | 6.4 | 0.00 | 0.00 | 0.00 | 1012.3 | |
| 20260508221045 | -17 | 160 | 0.0 | 4.8 | 0.00 | 0.00 | 0.00 | 1012.3 | |
| 20260508220542 | -17 | 276 | 0.0 | 8.0 | 0.00 | 0.00 | 0.00 | 1012.3 | |
| 20260508220038 | -17 | 115 | 3.2 | 6.4 | 0.00 | 0.00 | 0.00 | 1012.3 | |
| 20260508215535 | -17 | 153 | 3.2 | 4.8 | 0.00 | 0.00 | 0.00 | 1012.3 | |
| 20260508215032 | -17 | 118 | 3.2 | 14.5 | 0.00 | 0.00 | 0.00 | 1012.3 | |
| 20260508214530 | -17 | 335 | 0.0 | 4.8 | 0.00 | 0.00 | 0.00 | 1012.3 | |
| 20260508214026 | -17 | 158 | 3.2 | 6.4 | 0.00 | 0.00 | 0.00 | 1012.3 | |
| 20260508213523 | -17 | 182 | 3.2 | 9.7 | 0.00 | 0.00 | 0.00 | 1012.3 | |
| 20260508213019 | -17 | 211 | 1.6 | 9.7 | 0.00 | 0.00 | 0.00 | 1012.3 | |
| 20260508212516 | -17 | 141 | 4.8 | 8.0 | 0.00 | 0.00 | 0.00 | ||
| 20260508212012 | -17 | 289 | 0.0 | 8.0 | 0.00 | 0.00 | 0.00 | ||
| 20260508211508 | -17 | 321 | 0.0 | 8.0 | 0.00 | 0.00 | 0.00 | ||
| 20260508211004 | -17 | 342 | 1.6 | 4.8 | 0.00 | 0.00 | 0.00 | ||
| 20260508210501 | -17 | 18 | 0.0 | 8.0 | 0.00 | 0.00 | 0.00 | ||
| 20260508205957 | -17 | 164 | 1.6 | 4.8 | 0.00 | 0.00 | 0.00 | ||
| 20260508205455 | -17 | 183 | 1.6 | 6.4 | 0.00 | 0.00 | 0.00 | ||
| 20260508204951 | -17 | 197 | 0.0 | 8.0 | 0.00 | 0.00 | 0.00 | ||
| 20260508204448 | -17 | 237 | 0.0 | 6.4 | 0.00 | 0.00 | 0.00 | ||
| 20260508203943 | -17 | 117 | 3.2 | 3.2 | 0.00 | 0.00 | 0.00 | ||
| 20260508203440 | -17 | 120 | 0.0 | 6.4 | 0.00 | 0.00 | 0.00 | ||
| 20260508202935 | -17 | 187 | 3.2 | 6.4 | 0.00 | 0.00 | 0.00 | 1014.2 | |
| 20260508202433 | -17 | 213 | 3.2 | 9.7 | 0.00 | 0.00 | 0.00 | 1014.2 | |
| 20260508201930 | -17 | 118 | 3.2 | 6.4 | 0.00 | 0.00 | 0.00 | 1014.2 | |
| 20260508201427 | -17 | 153 | 4.8 | 8.0 | 0.00 | 0.00 | 0.00 | 1014.2 | |
| 20260508200924 | -17 | 85 | 3.2 | 4.8 | 0.00 | 0.00 | 0.00 | 1014.2 | |
| 20260508200421 | -17 | 107 | 3.2 | 6.4 | 0.00 | 0.00 | 0.00 | 1014.2 | |
| 20260508195915 | -17 | 195 | 0.0 | 8.0 | 0.00 | 0.00 | 0.00 | 1014.2 | |
| 20260508195413 | -17 | 165 | 3.2 | 6.4 | 0.00 | 0.00 | 0.00 | 1014.2 | |
| 20260508194909 | -17 | 152 | 4.8 | 4.8 | 0.00 | 0.00 | 0.00 | 1014.2 | |
| 20260508194406 | -17 | 165 | 1.6 | 4.8 | 0.00 | 0.00 | 0.00 | 1014.2 | |
| 20260508193903 | -17 | 54 | 0.0 | 4.8 | 0.00 | 0.00 | 0.00 | 1014.2 | |
| 20260508193400 | -17 | 178 | 1.6 | 4.8 | 0.00 | 0.00 | 0.00 | 1014.3 | |
| 20260508192856 | -17 | 103 | 4.8 | 4.8 | 0.00 | 0.00 | 0.00 | 1014.3 | |
| 20260508192353 | -17 | 238 | 1.6 | 6.4 | 0.00 | 0.00 | 0.00 | 1014.3 | |
| 20260508191850 | -17 | 220 | 1.6 | 6.4 | 0.00 | 0.00 | 0.00 | 1014.3 | |
| 20260508191348 | -17 | 38 | 3.2 | 11.3 | 0.00 | 0.00 | 0.00 | 1014.6 | |
| 20260508190845 | -17 | 261 | 0.0 | 3.2 | 0.00 | 0.00 | 0.00 | 1014.6 | |
| 20260508190341 | -17 | 214 | 0.0 | 4.8 | 0.00 | 0.00 | 0.00 | 1014.6 | |
| 20260508185837 | -17 | 194 | 0.0 | 4.8 | 0.00 | 0.00 | 0.00 | 1014.6 | |
| 20260508185335 | -17 | 83 | 3.2 | 8.0 | 0.00 | 0.00 | 0.00 | 1014.7 | |
| 20260508184832 | -17 | 169 | 4.8 | 8.0 | 0.00 | 0.00 | 0.00 | 1014.7 | |
| 20260508184330 | -17 | 166 | 3.2 | 3.2 | 0.00 | 0.00 | 0.00 | 1014.8 | |
| 20260508183826 | -17 | 328 | 1.6 | 6.4 | 0.00 | 0.00 | 0.00 | 1014.8 | |
| 20260508183323 | -17 | 158 | 3.2 | 4.8 | 0.00 | 0.00 | 0.00 | 1015.2 | |
| 20260508182818 | -17 | 13 | 0.0 | 6.4 | 0.00 | 0.00 | 0.00 | 1015.2 | |
| 20260508182316 | -17 | 309 | 4.8 | 6.4 | 0.00 | 0.00 | 0.00 | 1015.2 | |
| 20260508181811 | -17 | 281 | 1.6 | 3.2 | 0.00 | 0.00 | 0.00 | 1015.2 | |
| 20260508181308 | -17 | 164 | 3.2 | 6.4 | 0.00 | 0.00 | 0.00 | 1015.2 | |
| 20260508180805 | -17 | 165 | 1.6 | 4.8 | 0.00 | 0.00 | 0.00 | 1015.2 | |
| 20260508180302 | -17 | 83 | 1.6 | 3.2 | 0.00 | 0.00 | 0.00 | 1015.2 | |
| 20260508175758 | -17 | 116 | 0.0 | 1.6 | 0.00 | 0.00 | 0.00 | 1015.7 | |
| 20260508175255 | -17 | 342 | 1.6 | 3.2 | 0.00 | 0.00 | 0.00 | 1015.7 | |
| 20260508174753 | -17 | 20 | 4.8 | 8.0 | 0.00 | 0.00 | 0.00 | 1015.7 | |
| 20260508174250 | -17 | 193 | 0.0 | 3.2 | 0.00 | 0.00 | 0.00 | 1015.7 | |
| 20260508173747 | -17 | 57 | 0.0 | 4.8 | 0.00 | 0.00 | 0.00 | 1015.7 | |
| 20260508173242 | -17 | 209 | 0.0 | 3.2 | 0.00 | 0.00 | 0.00 | 1015.7 | |
| 20260508172739 | -17 | 18 | 0.0 | 6.4 | 0.00 | 0.00 | 0.00 | 1015.7 | |
| 20260508172237 | -17 | 142 | 3.2 | 4.8 | 0.00 | 0.00 | 0.00 | 1015.7 | |
| 20260508171733 | -17 | 41 | 3.2 | 6.4 | 0.00 | 0.00 | 0.00 | 1015.8 | |
| 20260508171229 | -17 | 63 | 0.0 | 6.4 | 0.00 | 0.00 | 0.00 | 1015.8 | |
| 20260508170726 | -17 | 140 | 0.0 | 4.8 | 0.00 | 0.00 | 0.00 | 1015.7 | |
| 20260508170224 | -17 | 139 | 3.2 | 3.2 | 0.00 | 0.00 | 0.00 | 1016.3 | |
| 20260508165721 | -17 | 129 | 0.0 | 1.6 | 0.00 | 0.00 | 0.00 | 1016.3 | |
| 20260508165218 | -17 | 256 | 0.0 | 3.2 | 0.00 | 0.00 | 0.00 | 1016.4 | |
| 20260508164714 | -17 | 142 | 0.0 | 3.2 | 0.00 | 0.00 | 0.00 | 1016.4 | |
| 20260508164211 | -17 | 89 | 0.0 | 1.6 | 0.00 | 0.00 | 0.00 | 1016.3 | |
| 20260508163709 | -17 | 129 | 0.0 | 4.8 | 0.00 | 0.00 | 0.00 | 1016.6 | |
| 20260508163206 | -17 | 155 | 1.6 | 4.8 | 0.00 | 0.00 | 0.00 | 1016.4 | |
| 20260508162701 | -17 | 5 | 0.0 | 3.2 | 0.00 | 0.00 | 0.00 | 1016.4 | |
| 20260508162159 | -17 | 108 | 1.6 | 4.8 | 0.00 | 0.00 | 0.00 | 1016.5 | |
| 20260508161656 | -17 | 145 | 0.0 | 1.6 | 0.00 | 0.00 | 0.00 | 1016.7 | |
| 20260508161153 | -17 | 150 | 3.2 | 4.8 | 0.00 | 0.00 | 0.00 | 1016.7 | |
| 20260508160651 | -17 | 12 | 3.2 | 4.8 | 0.00 | 0.00 | 0.00 | 1016.5 | |
| 20260508160149 | -17 | 71 | 1.6 | 4.8 | 0.00 | 0.00 | 0.00 | 1016.7 | |
| 20260508155645 | -17 | 164 | 0.0 | 1.6 | 0.00 | 0.00 | 0.00 | 1016.8 | |
| 20260508155142 | -17 | 151 | 1.6 | 3.2 | 0.00 | 0.00 | 0.00 | 1017.1 | |
| 20260508154640 | -17 | 174 | 0.0 | 1.6 | 0.00 | 0.00 | 0.00 | 1017.0 | |
| 20260508154136 | -17 | 140 | 0.0 | 3.2 | 0.00 | 0.00 | 0.00 | 1017.0 | |
| 20260508153633 | -17 | 123 | 3.2 | 6.4 | 0.00 | 0.00 | 0.00 | 1016.8 | |
| 20260508153130 | -17 | 112 | 0.0 | 1.6 | 0.00 | 0.00 | 0.00 | 1016.8 | |
| 20260508152627 | -17 | 202 | 0.0 | 3.2 | 0.00 | 0.00 | 0.00 | 1016.8 | |
| 20260508152121 | -17 | 110 | 0.0 | 3.2 | 0.00 | 0.00 | 0.00 | 1016.8 | |
| 20260508151619 | -17 | 119 | 0.0 | 4.8 | 0.00 | 0.00 | 0.00 | 1016.8 | |
| 20260508151116 | -17 | 201 | 0.0 | 4.8 | 0.00 | 0.00 | 0.00 | 1016.8 | |
| 20260508150613 | -17 | 62 | 0.0 | 4.8 | 0.00 | 0.00 | 0.00 | 1016.8 | |
| 20260508150109 | -17 | 86 | 0.0 | 4.8 | 0.00 | 0.00 | 0.00 | 1017.0 | |
| 20260508145605 | -17 | 163 | 3.2 | 6.4 | 0.00 | 0.00 | 0.00 | 1017.0 | |
| 20260508145102 | -17 | 190 | 3.2 | 6.4 | 0.00 | 0.00 | 0.00 | 1017.0 | |
| 20260508144600 | -17 | 166 | 0.0 | 4.8 | 0.00 | 0.00 | 0.00 | 1016.9 | |
| 20260508144057 | -17 | 154 | 0.0 | 6.4 | 0.00 | 0.00 | 0.00 | 1016.9 | |
| 20260508143554 | -17 | 154 | 3.2 | 4.8 | 0.00 | 0.00 | 0.00 | 1016.9 | |
| 20260508143051 | -17 | 117 | 1.6 | 3.2 | 0.00 | 0.00 | 0.00 | 1016.9 | |
| 20260508142548 | -17 | 120 | 3.2 | 6.4 | 0.00 | 0.00 | 0.00 | 1017.0 | |
| 20260508142044 | -17 | 171 | 3.2 | 4.8 | 0.00 | 0.00 | 0.00 | 1017.0 | |
| 20260508141541 | -17 | 180 | 0.0 | 4.8 | 0.00 | 0.00 | 0.00 | 1017.0 | |
| 20260508141038 | -17 | 11 | 3.2 | 6.4 | 0.00 | 0.00 | 0.00 | 1017.1 | |
| 20260508140536 | -17 | 123 | 1.6 | 4.8 | 0.00 | 0.00 | 0.00 | 1017.1 | |
| 20260508140032 | -17 | 201 | 3.2 | 6.4 | 0.00 | 0.00 | 0.00 | 1016.9 | |
| 20260508135527 | -17 | 118 | 0.0 | 4.8 | 0.00 | 0.00 | 0.00 | 1017.0 | |
| 20260508135024 | -17 | 101 | 1.6 | 4.8 | 0.00 | 0.00 | 0.00 | 1016.8 | |
| 20260508134521 | -17 | 202 | 1.6 | 6.4 | 0.00 | 0.00 | 0.00 | 1016.9 | |
| 20260508134018 | -17 | 50 | 1.6 | 3.2 | 0.00 | 0.00 | 0.00 | 1017.4 | |
| 20260508133515 | -17 | 146 | 0.0 | 3.2 | 0.00 | 0.00 | 0.00 | 1017.4 | |
| 20260508133012 | -17 | 119 | 1.6 | 4.8 | 0.00 | 0.00 | 0.00 | 1017.3 | |
| 20260508132510 | -17 | 158 | 0.0 | 3.2 | 0.00 | 0.00 | 0.00 | 1017.4 | |
| 20260508132006 | -17 | 55 | 0.0 | 3.2 | 0.00 | 0.00 | 0.00 | 1017.5 | |
| 20260508131501 | -17 | 113 | 0.0 | 1.6 | 0.00 | 0.00 | 0.00 | 1017.5 | |
| 20260508130958 | -17 | 159 | 0.0 | 1.6 | 0.00 | 0.00 | 0.00 | 1017.2 | |
| 20260508130456 | -17 | 177 | 0.0 | 3.2 | 0.00 | 0.00 | 0.00 | 1017.2 | |
| 20260508125951 | -17 | 184 | 0.0 | 3.2 | 0.00 | 0.00 | 0.00 | 1017.2 | |
| 20260508125447 | -17 | 113 | 0.0 | 1.6 | 0.00 | 0.00 | 0.00 | 1017.4 | |
| 20260508124945 | -17 | 186 | 0.0 | 3.2 | 0.00 | 0.00 | 0.00 | 1017.3 | |
| 20260508124443 | -17 | 176 | 0.0 | 3.2 | 0.00 | 0.00 | 0.00 | 1017.4 | |
| 20260508123940 | -17 | 84 | 0.0 | 3.2 | 0.00 | 0.00 | 0.00 | 1017.5 | |
| 20260508123439 | -17 | 186 | 0.0 | 1.6 | 0.00 | 0.00 | 0.00 | 1017.4 | |
| 20260508122935 | -17 | 172 | 0.0 | 3.2 | 0.00 | 0.00 | 0.00 | 1017.5 | |
| 20260508122432 | -17 | 125 | 0.0 | 3.2 | 0.00 | 0.00 | 0.00 | 1017.5 | |
| 20260508121929 | -17 | 134 | 0.0 | 3.2 | 0.00 | 0.00 | 0.00 | 1017.4 | |
| 20260508121427 | -17 | 79 | 1.6 | 3.2 | 0.00 | 0.00 | 0.00 | 1019.2 | |
| 20260508120925 | -17 | 124 | 0.0 | 3.2 | 0.00 | 0.00 | 0.00 | 1017.6 | |
| 20260508120422 | -17 | 101 | 0.0 | 1.6 | 0.00 | 0.00 | 0.00 | 1017.6 | |
| 20260508115919 | -17 | 284 | 0.0 | 1.6 | 0.00 | 0.00 | 0.00 | 1017.5 | |
| 20260508115418 | -17 | 160 | 0.0 | 3.2 | 0.00 | 0.00 | 0.00 | 1017.9 | |
| 20260508114913 | -17 | 120 | 1.6 | 3.2 | 0.00 | 0.00 | 0.00 | 1018.1 | |
| 20260508114410 | -17 | 113 | 0.0 | 1.6 | 0.00 | 0.00 | 0.00 | 1018.2 | |
| 20260508113907 | -17 | 104 | 0.0 | 3.2 | 0.00 | 0.00 | 0.00 | 1018.1 | |
| 20260508113405 | -17 | 119 | 0.0 | 3.2 | 0.00 | 0.00 | 0.00 | 1018.2 | |
| 20260508112902 | -17 | 109 | 0.0 | 3.2 | 0.00 | 0.00 | 0.00 | 1018.1 | |
| 20260508112359 | -17 | 131 | 1.6 | 3.2 | 0.00 | 0.00 | 0.00 | 1018.0 | |
| 20260508111855 | -17 | 121 | 0.0 | 4.8 | 0.00 | 0.00 | 0.00 | 1018.1 | |
| 20260508111352 | -17 | 111 | 0.0 | 4.8 | 0.00 | 0.00 | 0.00 | 1017.9 | |
| 20260508110849 | -17 | 211 | 0.0 | 3.2 | 0.00 | 0.00 | 0.00 | 1017.9 | |
| 20260508110347 | -17 | 60 | 3.2 | 4.8 | 0.00 | 0.00 | 0.00 | 1017.8 | |
| 20260508105847 | -17 | 42 | 0.0 | 6.4 | 0.00 | 0.00 | 0.00 | 1017.6 | |
| 20260508105343 | -17 | 58 | 0.0 | 4.8 | 0.00 | 0.00 | 0.00 | 1017.4 | |
| 20260508104841 | -17 | 146 | 0.0 | 3.2 | 0.00 | 0.00 | 0.00 | 1017.4 | |
| 20260508104337 | -17 | 354 | 3.2 | 4.8 | 0.00 | 0.00 | 0.00 | 1017.5 | |
| 20260508103835 | -17 | 127 | 0.0 | 4.8 | 0.00 | 0.00 | 0.00 | 1017.8 | |
| 20260508103332 | -17 | 298 | 0.0 | 4.8 | 0.00 | 0.00 | 0.00 | 1018.0 | |
| 20260508102829 | -17 | 89 | 0.0 | 3.2 | 0.00 | 0.00 | 0.00 | 1018.0 | |
| 20260508102327 | -17 | 136 | 0.0 | 3.2 | 0.00 | 0.00 | 0.00 | 1018.1 |